Weather History for Bedford, MA

Change the Weather History Date:

Wednesday, June 12, 2013

  Actual Average Record
Temperature  
Mean Temperature 62 °F -  
Max Temperature 71 °F 75 °F 93 °F (1973)
Min Temperature 55 °F 51 °F 37 °F (1980)
Degree Days  
Heating Degree Days 2    
Growing Degree Days 12 (Base 50)    
Moisture  
Dew Point 54 °F    
Average Humidity 82    
Maximum Humidity 100    
Minimum Humidity 53    
Precipitation  
Precipitation 0.06 in - - ()
Sea Level Pressure  
Sea Level Pressure 29.66 in    
Wind  
Wind Speed 5 mph (WNW)    
Max Wind Speed 23 mph    
Max Gust Speed 34 mph    
Visibility 8 miles    
Events Rain    
Averages and records for this station are not official NWS values.
T = Trace of Precipitation, MM = Missing Value Source: NWS Daily Summary

Daily Weather History Graph

Daily Weather History Graph

Search for Another Location

Airport:

Trip Planner

Search our weather history database for the weather conditions in past years. The results will help you decide how hot, cold, wet, or windy it might be!

Date:

Astronomy

Jun. 12, 2013 Rise Set
Actual Time 5:07 AM EDT 8:22 PM EDT
Civil Twilight 4:32 AM EDT 8:57 PM EDT
Nautical Twilight 3:47 AM EDT 9:42 PM EDT
Astronomical Twilight 2:53 AM EDT 10:37 PM EDT
Moon 8:47 AM EDT (6/12) 10:52 PM EDT (6/12)
Length of Visible Light 16h 25m
Length of Day
15h 15m
Waxing Crescent, 14% of the Moon is Illuminated
Jun 12
Waxing Crescent
Jun 16
First Quarter
Jun 23
Full
Jun 30
Last Quarter
Jul 8
New

Hourly Weather History & Observations

Time (EDT) Temp. Dew Point Humidity Pressure Visibility Wind Dir Wind Speed Gust Speed Precip Events Conditions
12:05 AM 55.4 °F - N/A% 29.58 in 3.0 mi Calm Calm - 0.00 in Rain Light Rain
12:20 AM 55.4 °F - N/A% 29.58 in 6.0 mi Calm Calm - 0.01 in   Haze
12:32 AM 55.4 °F - N/A% 29.58 in 6.0 mi Calm Calm - 0.01 in   Haze
12:56 AM 55.9 °F - N/A% 29.61 in 4.0 mi Calm Calm - 0.01 in Rain Light Rain
1:06 AM 55.4 °F 55.4 °F 100% 29.57 in 3.0 mi NNW 3.5 mph - 0.00 in Rain Light Rain
1:48 AM 55.4 °F 55.4 °F 100% 29.57 in 3.0 mi Calm Calm - 0.02 in Rain Light Rain
1:56 AM 55.9 °F 55.9 °F 100% 29.60 in 4.0 mi Calm Calm - 0.02 in   Overcast
2:25 AM 55.4 °F 55.4 °F 100% 29.56 in 4.0 mi Calm Calm - 0.01 in   Overcast
2:56 AM 55.9 °F 55.9 °F 100% 29.60 in 4.0 mi Calm Calm - 0.01 in Rain Light Rain
3:49 AM 55.4 °F 55.4 °F 100% 29.56 in 10.0 mi Calm Calm - 0.01 in   Overcast
3:56 AM 55.9 °F 55.9 °F 100% 29.60 in 10.0 mi Calm Calm - 0.01 in   Overcast
4:56 AM 55.9 °F 55.9 °F 100% 29.61 in 5.0 mi NW 4.6 mph - 0.01 in Rain Light Rain
5:25 AM 55.4 °F 55.4 °F 100% 29.59 in 7.0 mi NW 5.8 mph - 0.00 in Rain Light Rain
5:35 AM 55.4 °F 55.4 °F 100% 29.59 in 9.0 mi NW 4.6 mph - 0.00 in   Overcast
5:56 AM 55.9 °F 55.9 °F 100% 29.63 in 10.0 mi WNW 3.5 mph - 0.00 in   Overcast
6:15 AM 55.4 °F 55.4 °F 100% 29.60 in 10.0 mi West 4.6 mph - N/A   Overcast
6:56 AM 57.0 °F 55.9 °F 96% 29.64 in 10.0 mi WSW 4.6 mph - N/A   Overcast
7:03 AM 57.2 °F 55.4 °F 94% 29.61 in 10.0 mi WSW 5.8 mph - N/A   Overcast
7:14 AM 57.2 °F 57.2 °F 100% 29.61 in 10.0 mi West 5.8 mph - N/A   Overcast
7:40 AM 57.2 °F 57.2 °F 100% 29.60 in 10.0 mi West 5.8 mph - N/A   Overcast
7:56 AM 59.0 °F 57.9 °F 96% 29.64 in 10.0 mi West 6.9 mph - N/A   Overcast
8:56 AM 61.0 °F 57.0 °F 87% 29.65 in 10.0 mi West 12.7 mph 18.4 mph N/A   Mostly Cloudy
9:56 AM 63.0 °F 54.0 °F 72% 29.65 in 10.0 mi NW 16.1 mph 24.2 mph N/A   Mostly Cloudy
10:56 AM 64.0 °F 52.0 °F 65% 29.66 in 10.0 mi WNW 17.3 mph 32.2 mph N/A   Overcast
11:03 AM 64.4 °F 51.8 °F 64% 29.62 in 10.0 mi WNW 21.9 mph 29.9 mph N/A   Overcast
11:56 AM 66.9 °F 54.0 °F 63% 29.67 in 10.0 mi NW 17.3 mph 23.0 mph N/A   Mostly Cloudy
12:56 PM 69.1 °F 54.0 °F 58% 29.68 in 10.0 mi NW 17.3 mph 28.8 mph N/A   Mostly Cloudy
1:56 PM 70.0 °F 52.0 °F 53% 29.69 in 10.0 mi NW 19.6 mph 34.5 mph N/A   Mostly Cloudy
2:56 PM 70.0 °F 53.1 °F 55% 29.70 in 10.0 mi NW 23.0 mph 29.9 mph N/A   Mostly Cloudy
3:56 PM 66.9 °F 51.1 °F 57% 29.71 in 10.0 mi NW 16.1 mph 26.5 mph N/A   Overcast
4:56 PM 66.0 °F 52.0 °F 60% 29.73 in 10.0 mi NNW 9.2 mph 18.4 mph N/A   Overcast
5:56 PM 66.9 °F 54.0 °F 63% 29.74 in 10.0 mi NW 9.2 mph - 0.00 in   Overcast
6:56 PM 66.9 °F 52.0 °F 59% 29.77 in 10.0 mi NW 10.4 mph - N/A   Overcast
7:56 PM 66.0 °F 52.0 °F 60% 29.79 in 10.0 mi NW 10.4 mph - N/A   Overcast
8:56 PM 64.0 °F 51.1 °F 63% 29.81 in 10.0 mi WNW 6.9 mph - N/A   Overcast
9:56 PM 61.0 °F 52.0 °F 72% 29.84 in 10.0 mi WNW 6.9 mph - N/A   Mostly Cloudy
10:56 PM 59.0 °F 52.0 °F 78% 29.85 in 10.0 mi NW 5.8 mph - N/A   Mostly Cloudy
11:56 PM 55.0 °F 51.1 °F 86% 29.84 in 10.0 mi Calm Calm - N/A   Clear